EHI
0 0 0 0 0 0 0 0 0 0 0 0 0 0 0 0 0 0 1 5 11 14 14 12 8 5 4 3 3 3 3 3 3 3 2 1 0 0 0 0 0 0 0
0 0 0 0 0 0 0 0 0 0 0 0 0 0 0 0 0 0 0 3 7 11 12 11 8 6 5 4 3 3 3 3 3 3 3 2 1 0 0 0 0 0 0
0 0 0 0 0 0 0 0 0 0 0 0 0 0 0 0 0 0 0 1 2 5 9 11 12 10 8 6 4 3 3 3 3 3 3 2 1 0 0 0 0 0 0
0 0 0 0 0 0 0 0 0 0 0 0 0 0 0 0 0 0 0 0 0 1 5 12 17 17 13 10 7 5 3 3 3 3 3 2 1 0 0 0 0 0 0
0 0 0 0 0 0 0 0 0 0 0 0 0 0 0 0 0 0 0 0 0 0 2 8 15 18 16 14 12 8 5 3 3 3 3 2 1 0 0 0 0 0 0
1 0 0 0 0 0 0 0 0 0 0 0 0 0 0 0 0 0 0 0 0 0 0 2 6 9 12 15 15 13 9 6 4 3 3 2 0 0 0 0 0 0 0
3 2 2 1 0 0 0 0 0 0 0 0 0 0 0 0 0 0 0 0 0 0 1 1 0 2 5 8 11 13 13 11 8 5 4 3 1 1 0 0 0 0 0
5 5 5 3 1 1 1 1 1 1 1 0 0 0 0 0 0 0 0 0 0 0 1 1 1 1 1 2 4 9 13 13 10 6 4 3 2 1 0 0 1 0 0
6 7 7 5 4 4 4 3 3 2 2 1 0 0 0 0 0 0 0 0 0 0 1 1 2 2 1 1 1 3 6 8 8 7 4 2 1 1 0 0 0 0 0
5 7 8 6 6 6 6 5 4 4 4 3 2 2 1 0 0 0 0 0 0 0 0 0 1 2 2 2 3 2 2 2 4 6 5 3 1 0 1 1 0 0 0
4 6 7 6 6 6 6 6 6 6 6 5 3 3 2 1 1 1 0 0 0 0 0 0 0 1 1 3 4 4 2 1 1 3 4 3 1 1 2 2 1 1 0
3 4 5 5 5 6 6 6 6 6 6 6 5 4 3 2 1 1 0 0 0 0 0 0 0 0 0 1 3 5 4 2 0 1 1 1 1 1 2 2 2 2 1
3 3 4 5 6 6 6 6 6 6 6 6 6 5 4 4 3 2 1 0 0 0 0 0 0 0 0 0 2 4 4 2 0 0 0 0 0 0 1 1 2 2 2
4 4 5 7 8 7 7 6 6 6 6 6 6 6 6 5 4 3 2 0 0 0 0 0 0 0 0 0 0 1 1 1 0 0 0 0 0 0 0 0 1 1 1
5 5 6 8 9 8 7 6 6 6 6 6 6 6 5 4 3 3 1 0 0 0 0 0 0 0 0 0 0 0 0 0 0 0 0 0 0 0 0 0 0 0 0
6 6 7 7 7 7 6 6 6 6 6 6 5 4 4 3 3 2 1 0 0 0 0 0 0 0 0 0 0 0 0 0 0 0 0 0 0 0 0 0 0 0 0
6 7 6 5 5 4 4 5 6 6 6 6 4 3 3 3 2 1 1 1 0 0 0 0 0 0 0 0 0 0 0 0 0 0 0 0 0 0 0 0 0 0 0
6 6 5 4 4 4 4 5 5 6 6 5 4 4 3 3 1 0 0 0 0 0 0 0 0 0 0 0 0 0 0 0 0 0 0 0 0 0 0 0 0 0 0
5 5 4 5 6 6 6 6 5 5 5 5 5 4 4 2 1 0 0 0 0 0 0 0 0 0 0 0 0 0 0 0 0 0 0 0 0 0 0 0 0 0 0
5 5 5 7 8 8 7 6 4 4 4 4 4 3 3 2 1 0 0 0 0 0 0 0 0 0 0 0 0 0 0 0 0 0 0 0 0 0 0 0 0 0 0
6 6 6 7 7 7 6 4 3 3 3 3 2 1 2 2 1 0 0 0 0 0 0 0 0 0 0 0 0 0 0 0 0 0 0 0 0 0 0 0 0 0 0
6 6 6 6 6 5 4 3 3 2 2 2 1 1 1 1 0 0 0 0 0 0 0 0 0 0 0 0 0 0 0 0 0 0 0 0 0 0 0 0 0 0 0
4 4 4 4 4 4 3 3 1 1 1 1 1 1 0 0 0 0 0 0 0 0 0 0 0 0 0 0 0 0 0 0 0 0 0 0 0 0 0 0 0 0 0
3 3 3 3 3 3 3 2 1 1 1 0 0 1 1 1 0 0 0 0 0 0 0 0 0 0 0 0 0 0 0 0 0 0 0 0 0 0 0 0 0 0 0
3 3 3 3 3 3 3 2 1 2 2 1 0 0 1 1 0 0 0 0 0 0 0 0 0 0 0 0 0 0 0 0 0 0 0 0 0 0 0 0 0 0 0
3 3 3 3 3 3 3 2 2 2 3 2 1 0 1 1 0 0 0 0 0 0 0 0 0 0 0 0 0 0 0 0 0 0 0 0 0 0 0 0 0 0 0
Wind_Speed
2 2 2 1 2 2 2 2 2 3 2 2 2 3 4 4 4 4 3 11 12 12 12 12 12 11 11 11 11 10 10 10 9 9 9 9 8 8 8 8 8 8 7
3 3 2 2 2 2 2 3 2 2 1 1 1 3 4 4 4 5 4 6 11 11 11 12 12 12 11 11 10 10 10 10 10 10 9 9 9 8 9 8 8 8 8
4 3 2 2 2 2 2 1 1 1 1 1 1 1 2 3 4 5 5 4 5 9 11 11 11 11 11 11 11 11 11 11 11 11 10 10 9 9 9 9 9 8 8
3 3 2 1 1 1 1 1 1 1 1 1 0 1 1 2 4 4 4 4 4 4 7 11 10 10 11 11 11 11 11 10 10 10 10 10 10 10 9 9 9 9 9
3 3 2 2 1 1 1 1 1 2 2 1 1 1 1 1 2 3 4 4 4 4 4 7 10 10 11 12 12 11 11 10 10 10 10 11 11 11 10 10 10 10 9
2 2 1 1 1 1 0 0 1 1 1 2 1 0 1 1 1 2 3 3 3 4 4 4 4 7 11 11 11 11 11 11 10 10 10 10 10 9 10 10 10 10 10
2 2 1 1 1 1 1 1 1 1 1 2 1 1 2 1 0 1 1 2 3 3 3 3 3 3 4 8 9 9 10 11 10 10 10 10 10 9 8 9 9 9 9
2 2 2 1 1 1 0 0 1 1 1 2 2 1 1 3 3 1 0 1 1 1 1 3 2 3 3 2 4 7 8 9 9 9 8 8 8 8 8 8 8 8 8
2 2 2 2 1 1 1 1 1 2 2 1 2 3 3 2 1 2 2 1 1 1 0 0 1 1 3 2 2 3 6 7 8 9 8 7 6 6 5 6 7 7 7
1 1 1 2 1 1 0 1 1 1 2 1 1 1 2 4 3 0 2 2 2 2 1 1 1 1 1 1 1 3 3 4 5 5 5 5 4 4 4 4 4 4 4
1 1 1 1 1 0 0 0 0 0 1 2 2 1 1 1 2 3 1 1 2 2 1 1 1 1 1 1 1 3 4 3 3 3 3 3 3 3 2 2 2 2 2
1 1 1 1 1 1 1 1 1 1 0 1 1 1 2 2 2 2 2 2 0 1 1 1 1 1 1 1 2 5 5 4 4 4 4 4 4 4 3 2 1 1 1
1 1 1 1 1 1 1 1 1 1 1 1 0 1 1 1 2 3 3 2 1 1 1 1 1 1 2 1 2 5 6 6 6 5 5 5 5 5 4 4 4 3 3
1 1 1 2 2 2 2 2 1 1 1 1 1 0 1 1 2 3 3 4 2 0 0 0 1 1 1 1 2 3 4 7 7 6 6 6 6 6 6 6 5 5 6
1 2 2 2 2 3 3 2 2 2 2 1 1 1 0 0 1 1 2 3 4 2 1 1 0 1 1 2 3 2 3 7 7 6 6 6 6 6 6 6 6 6 6
2 2 3 3 3 3 3 3 2 2 3 2 1 2 1 1 0 0 1 1 2 3 2 1 1 1 2 3 4 3 3 7 7 6 6 6 6 6 6 6 6 7 7
2 3 4 4 4 3 3 3 2 3 3 3 3 2 2 1 1 1 1 2 2 3 3 1 1 1 2 3 2 2 3 3 3 6 6 6 6 7 7 7 7 7 7
3 3 4 4 4 3 3 3 3 3 3 3 3 4 3 3 3 2 2 2 2 2 4 3 1 1 1 2 3 3 3 3 3 5 6 6 7 7 6 6 6 7 7
3 4 4 4 3 3 3 3 3 4 4 4 4 4 4 4 4 3 3 3 2 2 3 4 2 1 1 2 3 2 3 2 2 4 5 5 5 5 5 5 5 5 5
4 4 4 4 3 3 3 3 4 4 4 5 5 5 5 4 4 4 4 3 3 3 3 4 3 2 1 1 2 2 1 1 1 2 2 3 3 3 3 3 4 4 4
5 4 5 4 4 3 3 4 4 5 5 5 6 6 6 8 8 5 4 3 4 4 3 4 3 3 2 2 1 1 2 1 1 1 1 1 1 1 1 0 1 2 2
5 5 5 4 4 4 5 7 6 5 5 5 5 5 6 7 9 10 10 8 6 5 4 4 3 3 1 1 1 1 2 2 0 1 1 1 1 1 1 1 1 1 1
5 5 5 5 5 5 7 8 8 5 5 4 4 4 5 6 6 6 8 10 9 8 6 4 4 2 2 1 1 1 1 2 1 1 2 0 1 1 2 1 2 2 2
4 4 4 4 4 5 7 7 8 5 5 5 4 4 4 4 5 5 6 6 6 5 4 3 3 2 1 1 2 2 2 2 1 1 2 1 1 1 2 1 3 4 3
4 3 3 4 4 4 6 7 7 4 5 5 4 4 4 4 6 7 6 6 5 4 5 6 4 3 4 3 3 3 3 3 1 1 1 1 1 1 1 2 2 3 4
4 4 4 3 4 3 5 6 6 4 4 3 3 4 5 5 6 6 5 5 4 2 3 4 4 5 4 4 5 3 3 2 1 1 1 1 0 0 1 2 1 2 2
Wind_Direction
173 184 201 208 209 208 206 218 221 227 230 218 179 163 161 167 164 169 179 182 182 184 186 186 187 189 191 194 197 197 197 197 195 194 196 196 195 194 193 193 193 192 192
168 176 187 196 213 215 204 203 206 198 199 172 146 151 159 166 172 174 180 185 188 189 192 193 195 196 197 198 199 201 202 200 200 200 199 199 200 198 199 200 199 200 201
166 164 169 194 215 213 205 197 198 157 157 138 120 145 157 169 174 181 181 184 192 200 200 201 201 203 202 203 203 205 206 206 206 206 206 204 204 204 204 206 207 206 205
168 155 169 217 229 191 174 173 163 139 141 134 139 210 188 182 185 185 182 186 190 200 209 209 208 208 208 209 209 208 206 206 208 209 209 209 210 210 210 213 215 212 211
174 162 176 215 208 161 175 184 148 151 157 172 204 227 216 206 204 187 184 190 195 199 203 212 214 214 214 215 214 213 210 209 207 209 211 213 215 215 214 217 222 220 218
177 165 175 201 169 148 184 140 143 147 161 173 183 334 293 247 203 193 194 184 189 196 196 209 220 225 222 220 218 217 215 214 212 213 215 214 214 214 214 217 222 224 224
170 157 163 174 164 168 210 195 146 131 162 146 101 14 355 351 91 205 191 174 189 199 188 199 212 224 229 222 221 219 219 218 216 215 217 217 217 215 214 217 221 223 224
178 163 165 183 178 180 243 211 158 154 215 168 145 119 2 357 4 345 25 169 190 201 193 201 199 213 222 216 210 213 215 216 217 215 213 214 215 216 217 221 224 227 230
181 177 166 174 178 168 203 229 200 178 207 239 172 158 163 209 311 352 19 53 91 86 81 83 130 216 216 214 218 219 218 218 220 220 219 216 213 216 218 222 230 235 236
155 151 131 137 140 146 197 247 210 186 175 216 240 205 186 172 168 227 358 20 49 64 73 85 88 57 106 152 146 136 174 194 203 210 213 210 206 202 201 213 228 238 241
62 102 114 108 101 97 292 305 359 163 186 191 196 198 183 175 172 171 221 306 23 29 55 81 82 81 73 121 142 111 120 148 164 170 164 161 162 171 182 197 221 249 273
31 52 88 86 81 63 24 4 19 28 243 189 193 178 172 170 180 162 180 191 203 337 20 34 64 85 83 98 116 106 107 113 121 123 122 117 110 100 95 92 84 25 343
56 38 73 66 65 52 41 40 44 24 29 54 188 199 180 190 175 158 158 180 189 269 10 11 10 98 99 87 112 112 110 110 110 112 112 104 95 89 83 76 65 49 36
154 96 84 68 55 48 39 40 45 27 36 33 19 103 162 207 177 171 170 164 168 276 12 326 16 69 92 101 107 115 110 109 107 105 104 101 95 87 81 74 66 58 52
103 80 87 76 53 47 40 39 37 16 27 25 1 8 37 233 203 190 174 171 167 174 235 241 164 72 101 88 88 92 100 107 110 106 105 104 100 94 87 80 72 65 60
80 86 77 73 68 57 47 46 32 19 31 10 3 18 9 328 327 158 167 168 159 160 168 212 196 153 112 102 97 86 94 106 115 119 113 107 103 99 92 86 80 76 70
84 82 79 72 66 56 47 51 43 33 34 17 6 24 14 18 49 51 87 98 114 133 143 149 95 114 104 113 95 89 86 80 95 108 111 109 105 101 97 92 85 79 73
81 88 80 71 66 56 49 53 46 37 43 36 25 36 28 45 52 51 74 90 109 125 141 143 113 91 112 144 129 116 105 98 91 100 108 108 105 101 97 90 83 78 72
81 78 81 77 65 56 53 52 52 49 52 47 42 45 31 51 58 60 74 84 94 100 117 133 130 90 89 109 102 93 88 72 98 102 98 96 97 99 100 98 91 84 78
87 81 82 76 67 63 61 58 61 62 57 48 46 51 47 57 71 76 80 85 95 96 101 113 111 101 99 98 103 104 87 50 74 91 89 98 90 89 94 107 106 97 86
91 81 78 67 63 69 66 72 77 76 67 57 50 52 58 65 69 71 81 85 97 95 94 101 103 95 81 89 116 149 126 104 42 68 67 47 58 28 1 15 121 109 90
81 76 70 65 60 61 77 82 85 81 72 68 62 53 59 57 62 67 72 75 89 102 105 100 99 107 97 85 72 98 108 109 125 291 108 18 60 310 291 283 262 222 234
89 82 73 71 68 68 82 86 86 89 79 73 68 61 66 57 58 64 66 65 64 73 92 113 112 121 134 172 127 97 107 129 171 193 126 199 294 279 277 262 237 241 246
103 97 87 80 76 71 80 90 94 86 79 72 70 72 74 57 56 74 77 66 57 52 63 85 113 131 136 165 164 162 160 117 64 40 108 146 271 273 286 279 259 246 247
110 103 97 93 86 68 76 89 96 89 79 66 62 66 76 71 64 79 81 75 60 37 49 69 80 71 64 73 101 91 78 89 60 333 353 128 241 286 300 291 279 268 263
124 114 97 91 93 81 78 90 99 98 89 74 56 48 59 76 80 90 91 90 78 37 33 38 36 31 33 37 56 94 121 114 109 299 298 110 202 85 319 299 293 291 284